Regional Weather Roundup
Issued by NWS

Home | Current Version | Previous Version | Graphics & Text | Print | Product List | Glossary On
Versions: 1 2 3 4 5 6 7 8 9 10 11 12 13 14 15 16 17 18 19 20 21 22 23 24 25 26 27 28 29 30 31 32 33 34 35 36 37 38 39 40 41 42 43 44 45 46 47 48 49 50
931
ASUS44 KLIX 292310
RWRLA
LOUISIANA WEATHER ROUNDUP
NATIONAL WEATHER SERVICE NEW ORLEANS LA
500 PM CST THU JAN 29 2015

NOTE: "FAIR" INDICATES FEW OR NO CLOUDS BELOW 12,000 FEET WITH NO
      SIGNIFICANT WEATHER AND/OR OBSTRUCTIONS TO VISIBILITY.
      SKY/WX - SKY CONDITION AND SIGNIFICANT WEATHER.
      TMP - AIR TEMPERATURE.    DP   - DEWPOINT TEMPERATURE.
      RH  - RELATIVE HUMIDITY.  PRES - PRESSURE.
      HX  - HEAT INDEX.         WCI  - WIND CHILL INDEX.

*  THESE STATIONS ARE NOT NWS OR FAA STATIONS AND ARE NOT UNDER
   NWS QUALITY CONTROL.

LAZ040-048-061>063-065-066-069-300000-
SOUTHEAST LOUISIANA

CITY           SKY/WX    TMP DP  RH WIND       PRES   REMARKS
N.O. AUDUBON     N/A     70  58  66 MISG        N/A
N.O. INTL ARPT PTCLDY    73  53  49 W13       30.17S
N.O. LAKEFRONT CLEAR     71  56  58 CALM      30.18S
N.O. DOWNTOWN* NOT AVBL
SLIDELL        CLEAR     73  55  53 VRB5      30.16S
BATON ROUGE    PTCLDY    74  47  38 W8        30.17R
BOOTHVILLE     CLEAR     67  58  72 S7        30.21F
BELLE CHASSE   MOCLDY    72  57  59 SW9       30.18S
BOGALUSA*        N/A     74  55  50 SW8       30.17S
GALLIANO*      CLEAR     71  60  68 MISG      30.20S
NEW ROADS*     MOCLDY    72  51  48 W7        30.18R
GONZALES*      FAIR      74  55  51 SW6       30.17S
HAMMOND*       CLEAR     75  50  41 SW9       30.17S
HOUMA*         NOT AVBL
PORT FOURCHON* CLEAR     70  61  73 S8        30.24S

$$

LAZ041-044-053-054-300000-
SOUTHWEST LOUISIANA

CITY           SKY/WX    TMP DP  RH WIND       PRES   REMARKS
LAKE CHARLES   MOCLDY    69  59  70 SW8       30.19R
LAFAYETTE      CLEAR     72  55  55 SW8       30.19S
PATTERSON      CLEAR     70  57  64 W13       30.22R
SALT POINT       N/A     63  61  93 VRB5      30.20S
NEW IBERIA     CLEAR     73  57  57 SW12      30.19S
CHENAULT AIRPK CLEAR     73  55  53 SW9       30.19R

$$

LAZ027-028-300000-
CENTRAL LOUISIANA

CITY           SKY/WX    TMP DP  RH WIND       PRES   REMARKS
FORT POLK      PTCLDY    73  50  45 W8        30.18R
ALEXANDRIA INT CLEAR     73  52  47 VRB5      30.15S
ALEXANDRIA     CLEAR     74  50  42 NW5       30.17R

$$

LAZ001-002-300000-
NORTHWEST LOUISIANA

CITY           SKY/WX    TMP DP  RH WIND       PRES   REMARKS
SHREVEPORT     MOCLDY    72  38  29 N12       30.20R
BARKSDALE AFB  PTCLDY    71  40  32 N10       30.20R
DTN SHREVEPORT CLEAR     71  38  29 N9        30.20R

$$

LAZ014-016-300000-
NORTHEAST LOUISIANA

CITY           SKY/WX    TMP DP  RH WIND       PRES   REMARKS
MONROE         CLEAR     71  50  47 NW8       30.17R
TALLULAH       MOCLDY    71  52  50 W6        30.16R

$$




USA.gov is the U.S. government's official web portal to all federal, state and local government web resources and services.